Other Surface Observations
Issued by NWS

Home | Current Version | Previous Version | Text Only | Print | Product List | Glossary On
Versions: 1 2 3 4 5 6 7 8 9 10 11 12 13 14 15 16 17 18 19 20 21 22 23 24 25 26 27 28 29 30 31 32 33 34 35 36 37 38 39 40 41 42 43 44 45 46 47 48 49 50
000
SXUS52 KTAE 300105
OSOTAE
OSOTAE
North Florida/South Alabama/Southwest Georgia Weather Roundup
National Weather Service Tallahassee Florida
800 PM EST THU JAN 29 2015

Note: "fair" indicates few or no clouds below 12,000 feet with no
significant weather and/or obstructions to visibility.

!FLZ017-115-028-034-025-300200
...North Florida...

CITY           SKY/WX    TMP DP  RH WIND       PRES   REMARKS
TALLAHASSEE    CLEAR     53  38  56 S7        30.24R
APALACHICOLA   CLEAR     53  45  74 S7        30.24F
PERRY          PTCLDY    49  45  86 S5        30.25F
CROSS CITY       N/A     52  45  77 W3        30.26S
JACKSONVILLE   MOCLDY    50  48  93 S5        30.23S
$$

!FLZ112-006-005-002-011-300200
...Florida Panhandle...

CITY           SKY/WX    TMP DP  RH WIND       PRES   REMARKS
MARIANNA       PTCLDY    54  49  83 S8        30.21S
BONIFAY        FAIR      55  50  83 S5        30.21S
PANAMA CITY NW FAIR      56  51  84 SE8       30.22S
TYNDALL AFB    CLEAR     56  50  80 S9        30.24S
TYND DRONE APT FAIR      54  50  85 S9        30.22S
DE FUNIAK SPR  FAIR      55  52  90 S6        30.20F
EGLIN AFB      PTCLDY    60  56  89 SW6       30.20S
DESTIN         CLEAR     63  56  78 SW7       30.20S
HURLBURT       CLEAR     62  54  74 S8        30.19S
CRESTVIEW      PTCLDY    56  53  90 S5        30.21S
PENSACOLA      PTCLDY    60  55  83 S9        30.19F
$$

!ALZ063-066-300200
...South Alabama...

CITY           SKY/WX    TMP DP  RH WIND       PRES   REMARKS
DOTHAN         CLEAR     57  49  74 S9        30.21S
OZARK CAIRNS   CLEAR     56  49  76 S7        30.18S
FT RUCKER HELI CLEAR     57  49  74 SW6       30.17S
RUCKER HELI 3  FAIR      58  51  76 S12       30.20R
RUCKER HELI 2  FAIR      57  49  74 S6        30.18R
FLORALA APT    PTCLDY    58  51  78 SW7       30.21R
ANDALUSIA      PTCLDY    62  49  62 VRB3      30.18R
TROY           PTCLDY    60  50  69 S9        30.16S
EUFALA         FAIR      59  46  62 S7        30.14S
MOBILE         PTCLDY    58  54  86 S8        30.20R
$$

!GAZ120>161-300200
...Southwest and South Central Georgia...

CITY           SKY/WX    TMP DP  RH WIND       PRES   REMARKS
THOMASVILLE    FAIR      54  30  40 S5        30.22S
BAINBRIDGE     PTCLDY    57  46  67 S5        30.21S
MOODY AFB      MOCLDY    54  34  46 SW7       30.20F
VALDOSTA       MOCLDY    53  37  54 S5        30.21F
MOULTRIE       MOCLDY    54  30  40 S5        30.21F
BLAKELY        PTCLDY    59  50  72 SW6       30.20S
ALBANY         MOCLDY    52  37  56 S7        30.20S
TIFTON         FAIR      54  30  40 S8        30.18F
FITZGERALD     FAIR      55  31  40 S5        30.19F
CORDELE        FAIR      56  33  41 S6        30.17F
AMERICUS       FAIR      54  34  47 SW6       30.18S
HOMERVILLE     FAIR      55  41  58 SW6       30.21S
$$

!GMZ750-755-770-775-300200
...Coastal and Buoy Obs...

STATION/POSITION TIME  TEMP    WIND        PRES    VSBY  WAVE
                       AIR SEA DIR/SP/G                  HT/PER
                 (UTC) (F)     (DEG/KT/KT) (MB)    (MI)  (FT/S)
KEATON BEACH     0100   55     230/  7/  8 1024.9R
CEDAR KEY        0000   58     300/  6/  8 1025.2R
C TOWER          0100   60     190/  7/  9 1024.2F
APALACHICOLA BUO 0100   63 68  220/  4/  8 1025.1S         2/ 4
PANAMA CITY BUOY NOT AVBL
MOBILE BUOY      0041   68 69  210/ 10/ 12 1023.7R         2/ 5
ORANGE BCH AL BU 0100   65 63  190/ 10/ 12 1022.1S         2/ 5
$$



USA.gov is the U.S. government's official web portal to all federal, state and local government web resources and services.